Location: Bogucice
(49.9833°N, 20.0667°E)
Time: 03:28:42
(UTC+00:00)

Daily predictions for brighter satellites

Satellite Brightness Start Highest point End
(mag) Time Altitude Azimuth Time Altitude Azimuth Time Altitude Azimuth
SL-14 R/B 3.3 00:02:49 40° SW 00:04:01 63° WNW 00:07:52 10° N
Orbus 7S? 3.6 00:02:44 21° W 00:04:27 45° NNW 00:07:03 10° NE
Cosmos 1441 Rocket 4.5 00:02:03 10° NW 00:04:57 23° W 00:05:09 23° W
Cosmos 540 Rocket 3.4 00:00:29 10° NNW 00:05:41 82° WSW 00:09:10 21° SSE
Resurs 1-4 Rocket 3.2 00:01:52 10° NNE 00:06:43 36° E 00:10:24 16° SSE
Cosmos 1953 2.8 00:03:54 10° N 00:07:47 54° ENE 00:10:12 21° SSE
Cosmos 1244 Rocket 4.4 00:04:51 26° S 00:08:29 90° W 00:14:43 10° N
CZ-2C R/B 3.3 00:04:36 10° SE 00:09:35 51° ENE 00:14:35 10° N
Cosmos 1697 Rocket 3.7 00:06:38 10° NW 00:11:22 28° WSW 00:12:58 24° SW
Cosmos 724 4.3 00:08:27 26° SW 00:11:57 85° NW 00:17:50 10° NE
OPS 6432 4.0 00:12:08 10° NW 00:15:16 89° N 00:17:25 19° SE
COSMOS 2406 3.4 00:12:11 26° S 00:15:27 64° ESE 00:21:10 10° NNE
Cosmos 1980 Rocket 2.4 00:11:48 10° NW 00:17:19 50° WSW 00:20:33 24° S
Cosmos 1862 Rocket 3.7 00:16:00 32° SW 00:17:49 61° WNW 00:22:07 10° N
Cosmos 1758 4.2 00:15:01 10° NNW 00:18:25 31° W 00:19:14 28° WSW
MSX 4.4 00:15:12 10° NNE 00:20:49 52° E 00:25:00 18° S
Cosmos 2369 3.8 00:15:30 10° NW 00:21:07 60° WSW 00:25:13 19° S
NPP 4.0 00:17:02 10° NNE 00:22:23 59° ESE 00:26:04 20° S
SL-16 R/B 3.6 00:18:02 10° SE 00:23:55 45° ENE 00:29:51 10° N
Meteor 1-16 Rocket 4.2 00:21:20 10° NNW 00:26:55 68° W 00:30:51 21° S
Cosmos 1607 4.3 00:23:16 19° WSW 00:28:03 65° NW 00:34:33 10° NE
BREEZE-M DEB (TANK) 2.4 00:27:45 10° WNW 00:30:11 40° N 00:32:08 10° ENE
Meteor 1-21 4.5 00:27:29 24° SSW 00:30:50 60° WNW 00:36:32 10° N
Cosmos 1455 1.8 00:32:47 10° N 00:36:15 88° W 00:38:09 25° S
Helios 1A Rocket 4.2 00:35:43 21° WSW 00:36:27 22° W 00:39:32 10° NW
Cosmos 1315 Rocket 3.0 00:36:05 23° S 00:38:20 63° E 00:42:13 10° NNE
Cosmos 2228 Rocket 4.4 00:38:49 19° WSW 00:41:02 29° WNW 00:44:57 10° N
H-2A R/B 3.3 00:38:01 10° NNE 00:42:03 90° SSW 00:44:21 25° SSW
Lacrosse 5 rocket 1.7 00:38:14 10° NW 00:42:21 65° NNE 00:46:17 10° ESE
Meteor 1-4 Rocket 2.0 00:41:20 33° S 00:42:31 76° E 00:45:30 10° NNE
SL-16 R/B 2.4 00:37:56 10° NNW 00:43:39 74° ENE 00:49:19 10° SE
USA 267 4.0 00:41:02 10° ENE 00:47:19 52° N 00:53:37 10° W
Cosmos 841 Rocket 3.4 00:46:28 10° NNW 00:51:42 75° WSW 00:56:55 10° SSE
Cosmos 2082 Rocket 2.5 00:50:37 19° SW 00:54:42 61° WNW 01:00:24 10° NNE
Cosmos 676 Rocket 4.1 00:52:54 20° SW 00:56:34 69° WNW 01:01:54 10° NNE
Cosmos 2237 4.2 00:51:03 10° NNW 00:56:49 82° WSW 01:02:33 10° SSE
ADEOS II 2.4 00:56:29 10° NNE 01:01:44 65° ESE 01:06:30 12° S
Cosmos 2219 Rocket 4.0 00:57:51 10° NNW 01:02:58 34° NE 01:08:06 10° ESE
Cosmos 1833 Rocket 4.5 00:59:54 10° W 01:04:19 23° NW 01:08:44 10° NNE
Okean 1-7 3.7 01:03:32 19° SW 01:06:07 39° WNW 01:10:12 10° N
Okean 2 4.0 01:04:37 20° SW 01:06:56 39° WNW 01:10:43 10° N
Cosmos 1782 Rocket 3.5 01:03:18 10° NNW 01:07:41 70° W 01:11:45 12° S
Cosmos 1908 Rocket 4.3 01:04:42 10° NNW 01:08:48 37° W 01:11:37 18° SSW
SJ 16-02 2.9 01:05:54 10° SSE 01:09:40 30° ESE 01:13:26 10° NE
Cosmos 2360 Rocket 2.8 01:04:22 10° NNW 01:10:01 61° ENE 01:15:38 10° SE
Cosmos 1408 3.0 01:07:42 13° SSE 01:10:11 45° E 01:13:04 10° NNE
IDEFIX/ARIANE 42P 2.9 01:06:48 10° N 01:11:57 56° WNW 01:16:06 16° SW
Cosmos 1814 Rocket 4.4 01:08:39 10° NNW 01:13:50 67° ENE 01:19:03 10° SSE
CZ-2C R/B 3.4 01:13:21 10° NNE 01:19:12 84° WNW 01:24:41 12° SSW
CRYOSAT 2 4.4 01:14:36 10° N 01:19:30 80° W 01:24:18 10° S
ALOS 2.8 01:16:56 10° NNE 01:21:31 56° E 01:26:02 10° S
SL-8 R/B 4.1 01:17:17 10° W 01:21:44 40° SSW 01:26:12 10° SE
CZ-2D R/B 2.4 01:17:00 10° N 01:22:26 63° WNW 01:27:12 13° SSW
Cosmos 1745 Rocket 4.3 01:17:54 14° SSW 01:23:04 54° WNW 01:29:14 10° N
Cosmos 2278 4.0 01:18:19 10° NW 01:23:47 47° WSW 01:29:13 10° S
SL-27 R/B 3.9 01:24:20 10° SSE 01:26:40 24° ESE 01:29:00 10° NE
Cosmos 2242 Rocket 3.6 01:26:24 11° SSW 01:30:40 83° WNW 01:35:09 10° N
Cosmos 2333 Rocket 2.4 01:26:10 10° NNW 01:31:55 78° ENE 01:37:39 10° SSE
Cosmos 1703 3.5 01:29:52 10° S 01:33:35 65° E 01:37:18 10° NNE
Cosmos 839 Rocket 4.4 01:26:08 10° NW 01:33:46 82° NE 01:40:06 10° SE
Cosmos 1242 Rocket 2.1 01:33:00 15° SSW 01:35:15 58° WNW 01:38:08 10° N
FENGYUN 3A 3.7 01:30:38 10° NNE 01:36:01 74° WNW 01:41:22 10° SSW
AQUA 3.8 01:34:48 10° N 01:39:32 73° WNW 01:44:14 10° SSW
Cosmos 2151 Rocket 4.2 01:36:56 10° N 01:41:24 60° ENE 01:45:48 10° SSE
Cosmos 1953 4.2 01:40:56 10° NW 01:43:10 15° W 01:45:19 10° WSW
Meteor 1-28 Rocket 3.7 01:40:58 10° SSW 01:44:17 37° W 01:47:38 10° NNW
Cosmos 2322 Rocket 2.2 01:39:51 10° NW 01:45:26 63° WSW 01:51:01 10° SSE
Resurs 1-4 Rocket 2.9 01:41:41 10° N 01:46:32 39° WNW 01:51:21 10° SW
UNK 3.7 01:43:06 10° S 01:47:43 69° WSW 01:52:23 10° NNW
CZ-2C R/B 3.6 01:45:49 10° SSW 01:50:07 26° W 01:54:26 10° NW
Envisat 3.7 01:46:07 10° NNE 01:51:07 54° E 01:56:04 10° S
EXPRESS MD2 3.9 01:49:52 11° SW 01:52:43 45° SSE 01:57:50 10° ENE
Cosmos 2184 Rocket 4.3 01:48:48 10° S 01:54:57 70° E 02:01:13 10° NNE
Okean 2 Rocket 3.3 01:50:43 10° N 01:55:08 75° E 01:59:31 10° SSE
SAR-Lupe-4 3.8 01:56:26 10° N 01:59:56 55° WNW 02:03:26 10° SSW
Cosmos 1850 Rocket 4.4 01:55:33 10° SW 02:00:43 52° WNW 02:05:53 10° NNE
Cosmos 1741 Rocket 4.4 01:58:50 10° SW 02:03:55 51° WNW 02:09:04 10° NNE
Nadezhda 3 Rocket 4.3 01:58:57 10° N 02:05:21 76° ENE 02:11:42 10° SSE
Cosmos 2154 Rocket 4.4 01:59:19 10° S 02:05:27 69° E 02:11:38 10° NNE
ATLAS 2AS CENTAUR R/B 2.9 01:58:57 10° NW 02:05:53 79° NE 02:12:32 10° SE
SL-16 R/B 3.1 02:01:46 10° SSW 02:07:34 39° W 02:13:26 10° NNW
